Home > Weather > St. Peter Port > Past weeks

Flag for Guernsey Weather for the Past 2 Weeks in St. Peter Port, Guernsey

Now
43 °F

Passing clouds.


Feels Like: 34 °F
Forecast: N/A
Wind: 22 mph from West

Location: Guernsey Airport

Current Time: Feb 9, 2016 at 9:30:04 PM

Latest Report: Feb 9, 2016 at 8:50 PM


Visibility: N/A

Pressure: 29.39 "Hg

Humidity: 61%

Dew point: 30 °F

Location of St. Peter PortLocation

Historic Weather in St. Peter Port — Graph

°F

St. Peter Port Temperature Yesterday

Maximum temperature yesterday: 50 °F (at 2:20 PM)
Minimum temperature yesterday: 43 °F (at 8:50 AM)
Average temperature yesterday: 47 °F

High & Low Weather Summary for the Past Weeks

 TemperatureHumidityPressure
High54 °F (Jan 27, 8:20 AM)100% (Jan 26, 4:20 AM)30.51 "Hg (Jan 26, 4:20 AM)
Low39 °F (Feb 9, 10:20 AM)53% (Feb 3, 7:50 AM)29.15 "Hg (Feb 9, 6:50 AM)
Average49 °F85%29.95 "Hg
* Reported Jan 25 8:20 PM — Feb 9 8:20 PM, St. Peter Port, Weather by CustomWeather, © 2016

Note: Actual official high and low records may vary slightly from our data, if they occured in-between our weather recording intervals... More about our weather records

Advertising

St. Peter Port Weather History for the Previous 24 Hours

 ConditionsComfort  
Time TempWeatherWind HumidityBarometerVisibility
8:20 PM
Tue, Feb 9
43 °FPassing clouds.18 mph66%29.39 "HgN/A
7:50 PM41 °FScattered showers. Passing clouds.22 mph66%29.39 "HgN/A
7:20 PM39 °FSprinkles. Passing clouds.20 mph81%29.39 "HgN/A
6:50 PM43 °FScattered showers. Passing clouds.24 mph71%29.36 "HgN/A
6:20 PM43 °FPassing clouds.22 mph66%29.36 "HgN/A
5:50 PM41 °FPassing clouds.22 mph76%29.33 "HgN/A
5:20 PM39 °FScattered showers. Passing clouds.21 mph81%29.33 "HgN/A
4:50 PM41 °FRain showers. Scattered clouds.22 mph81%29.30 "HgN/A
4:20 PM39 °FSprinkles. Partly sunny.31 mph87%29.27 "HgN/A
3:50 PM43 °FScattered showers. Passing clouds.20 mph71%29.27 "HgN/A
3:20 PM43 °FScattered showers. Passing clouds.21 mph71%29.24 "HgN/A
2:20 PM39 °FScattered showers. Passing clouds.13 mph87%29.21 "HgN/A
1:20 PM43 °FSprinkles. Passing clouds.16 mph81%29.21 "HgN/A
12:50 PM43 °FScattered showers. Passing clouds.17 mph81%29.21 "HgN/A
12:20 PM43 °FScattered showers. Scattered clouds.20 mph81%29.21 "HgN/A
11:50 AM41 °FSprinkles. Partly sunny.20 mph87%29.21 "HgN/A
11:20 AM41 °FSprinkles. Partly sunny.14 mph93%29.21 "HgN/A
10:50 AM39 °FScattered showers. Scattered clouds.7 mph93%29.21 "HgN/A
10:20 AM39 °FRain showers. Broken clouds.16 mph87%29.21 "Hg4 mi
9:50 AM41 °FLight rain. Scattered clouds.7 mph87%29.18 "HgN/A
9:20 AM41 °FLight rain. Partly sunny.7 mph87%29.18 "HgN/A
8:50 AM41 °FLight rain. Scattered clouds.14 mph87%29.18 "HgN/A
8:20 AM41 °FRain. Partly sunny.15 mph87%29.18 "Hg5 mi
7:50 AM41 °FRain. Partly sunny.17 mph87%29.18 "Hg4 mi
7:20 AM41 °FRain. Passing clouds.20 mph87%29.18 "HgN/A
6:50 AM43 °FHeavy rain. Passing clouds.10 mph93%29.15 "Hg2 mi
6:20 AM43 °FRain. Partly cloudy.8 mph93%29.18 "Hg4 mi
5:50 AM45 °FHeavy rain. Partly cloudy.7 mph93%29.18 "Hg3 mi
5:20 AM43 °FLight rain. Partly cloudy.6 mph93%29.21 "HgN/A
4:50 AM43 °FRain. Partly cloudy.12 mph93%29.27 "Hg5 mi
4:20 AM43 °FLight rain. Partly cloudy.13 mph93%29.27 "HgN/A
3:50 AM45 °FRain. Partly cloudy.14 mph87%29.30 "Hg4 mi
9:20 PM
Mon, Feb 8
45 °FScattered showers. Passing clouds.24 mph81%29.56 "HgN/A
Weather by CustomWeather, © 2016

See weather overviewHow to use our weather pages